Weather in Zheleznodorozhny

Russia / Irkutsk Oblast     57°54′13″N   102°47′12″E
temp.,
°C
wind,
m/s
gust,
m/s
humid.,
%
clouds,
%
prec.,
mm/h
press.,
hPa
HPBL,
m
6 march, sat
sat623:00−11s2993100 0.0 1018282
02:00−12s3992100 0.0 1018240
05:00−12s31191100 0.0 1016308
08:00−8ssw51294100 1.2 1016574
11:00−5wsw61087100 0.6 1016978
14:00−4wsw5983100 0.8 10151244
17:00−4sw3792100 0.4 1015683
20:00−7sw3993100 0.7 1016263
7 march, sun
sun723:00−7ssw3993100 0.1 1015319
02:00−6ssw41193100 0.1 1013494
05:00−5ssw51293100 0.2 1009775
08:00−5ssw61385100 0.2 1008907
11:00−4sw61290100 0.2 10081233
14:00−2wsw71480100 0.6 10081820
17:00−2wsw51478100 0.5 10071925
20:00−4wsw41390100 1.2 10081471
8 march, mon
mon823:00−9wsw4148767 0.6 1010758
02:00−11wsw4129254 0.6 1012766
05:00−12wsw41293100 0.1 1014888
08:00−12wsw51391100 0.3 1017940
11:00−11w61189100 0.2 1019878
14:00−8w5987100 0.4 1021895
17:00−8wsw4786100 0.1 1022865
20:00−13ssw239597 0.1 102430
9 march, tue
tue923:00−15s239428 0.0 102248
02:00−13se299364 0.0 1019276
05:00−9s51581100 0.0 1014625
08:00−8s61683100 0.1 1010649
11:00−2sw61393100 0.3 10081160
14:00−2wsw81477100 0.7 10091731
17:00−5wsw71478100 0.2 10121775
20:00−9wsw41489100 0.3 10171279
10 march, wed
wed1023:00−11w41390100 0.1 10201089
02:00−12wsw41194100 0.1 1022667
05:00−15sw3996100 0.1 1023250
08:00−17ssw369888 0.1 1025135
11:00−11ssw389084 0.0 1023368
14:00−7s488292 0.0 1019594
17:00−4s5118579 0.0 1015924
20:00−6ssw4148989 0.0 1013585